Terminal Aerodrome Forecast
Issued by NWS Charleston, WV

Current Version | Previous Version | Text Only | Print | Product List | Glossary Off
Versions: 1 2 3 4 5 6 7 8 9 10 11 12 13 14 15 16 17 18 19 20 21

000
FTUS41 KRLX 230200 AAA
TAFEKN
TAF AMD
KEKN 230251Z 2303/2324 00000KT P6SM SCT070
      TEMPO 2304/2308 6SM BR
     FM231600 VRB03KT P6SM BKN070
     FM231900 16007KT P6SM BKN110
     FM232300 15008KT 6SM -SHRA BKN080=

USA.gov is the U.S. government's official web portal to all federal, state and local government web resources and services.